Location: *
(2.5500°S, 65.9667°W)
Time: 21:56:30
(UTC+00:00)

Vanguard 2 - Visible Passes

Search period start: 12 April 2024 00:00
Search period end: 22 April 2024 00:00
Orbit: 553 x 2917 km, 32.9° (Epoch: 12 April)

Date Brightness Start Highest point End Pass type
(mag) Time Alt. Az. Time Alt. Az. Time Alt. Az.
12 Apr 11.4 05:30:16 25° NE 05:30:16 25° NE 05:35:38 10° NE visible
12 Apr 10.8 07:31:25 35° NNW 07:31:25 35° NNW 07:46:15 10° NNE visible
12 Apr 11.6 09:38:59 10° NW 09:46:44 14° NNW 09:53:53 10° N visible
13 Apr 11.3 05:43:53 28° NE 05:43:53 28° NE 05:50:27 10° NE visible
13 Apr 11.0 07:45:01 28° NW 07:46:48 28° NNW 08:00:35 10° NNE visible
13 Apr 11.7 09:58:16 10° NNW 10:03:11 12° NNW 10:07:48 10° N visible
14 Apr 11.2 05:57:26 30° NNE 05:57:26 30° NNE 06:05:06 10° NE visible
14 Apr 11.2 07:58:33 21° NW 08:02:40 23° NNW 08:14:53 10° NNE visible
15 Apr 11.2 06:10:54 30° NNE 06:10:54 30° NNE 06:19:37 10° NE visible
15 Apr 11.4 08:12:01 15° NW 08:18:46 18° NNW 08:29:13 10° NNE visible
16 Apr 11.2 06:24:18 29° N 06:24:18 29° N 06:34:02 10° NNE visible
16 Apr 11.6 08:26:27 10° NW 08:35:08 15° NNW 08:43:39 10° NNE visible
17 Apr 11.8 04:36:34 12° NE 04:36:34 12° NE 04:37:22 10° NE visible
17 Apr 11.2 06:37:40 26° N 06:37:40 26° N 06:48:23 10° NNE visible
17 Apr 11.7 08:44:50 10° NW 08:51:44 13° N 08:58:24 10° NNE visible
18 Apr 10.3 00:11:50 10° S 00:11:57 10° S 00:11:57 10° S visible
18 Apr 11.7 04:49:53 15° NE 04:49:53 15° NE 04:51:59 10° NE visible
18 Apr 11.3 06:50:59 22° NNW 06:50:59 22° NNW 07:02:45 10° NNE visible
18 Apr 11.8 09:02:50 10° NNW 09:08:28 12° N 09:13:53 10° NNE visible
19 Apr 10.2 00:25:23 10° S 00:26:01 12° S 00:26:01 12° S visible
19 Apr 11.6 05:03:09 17° NNE 05:03:09 17° NNE 05:06:27 10° NE visible
19 Apr 11.5 07:04:16 17° NNW 07:06:53 18° NNW 07:17:10 10° NNE visible
19 Apr 11.9 09:19:36 10° NNW 09:25:14 12° N 09:30:35 10° NNE visible
20 Apr 10.2 00:39:22 10° SSW 00:40:08 14° SSW 00:40:08 14° SSW visible
20 Apr 11.6 05:16:24 18° NNE 05:16:24 18° NNE 05:20:49 10° NNE visible
20 Apr 11.6 07:17:30 12° NNW 07:23:20 15° NNW 07:31:50 10° NNE visible
20 Apr 11.9 09:35:03 10° NNW 09:41:55 13° N 09:48:14 10° NNE visible
21 Apr 10.2 00:53:37 10° SSW 00:54:21 14° SSW 00:54:21 14° SSW visible
21 Apr 11.5 05:29:36 18° N 05:29:36 18° N 05:35:07 10° NNE visible
21 Apr 11.7 07:33:10 10° NNW 07:39:59 13° N 07:46:58 10° NNE visible
21 Apr 11.9 09:49:47 10° NNW 09:58:25 15° NNE 10:06:05 10° NE visible
21 Apr 9.8 23:05:57 10° SE 23:06:18 10° SE 23:06:39 10° SE visible
